TimeMDT,TemperatureF,Dew PointF,Humidity,Sea Level PressureIn,VisibilityMPH,Wind Direction,Wind SpeedMPH,Gust SpeedMPH,PrecipitationIn,Events,Conditions,WindDirDegrees,DateUTC
12:15 AM,44.6,17.6,34,30.28,10.0,SE,13.8,-,N/A,,Clear,130,2013-04-25 06:15:00
12:35 AM,44.6,17.6,34,30.29,10.0,SE,15.0,-,N/A,,Clear,130,2013-04-25 06:35:00
12:55 AM,42.8,17.6,36,30.29,10.0,ESE,8.1,-,N/A,,Clear,110,2013-04-25 06:55:00
1:15 AM,39.2,17.6,42,30.29,10.0,ESE,8.1,-,N/A,,Clear,110,2013-04-25 07:15:00
1:35 AM,37.4,17.6,45,30.29,10.0,ESE,8.1,-,N/A,,Clear,110,2013-04-25 07:35:00
1:55 AM,37.4,17.6,45,30.30,10.0,ESE,9.2,-,N/A,,Clear,110,2013-04-25 07:55:00
2:15 AM,35.6,17.6,48,30.29,10.0,East,8.1,-,N/A,,Clear,100,2013-04-25 08:15:00
2:35 AM,35.6,17.6,48,30.29,10.0,East,8.1,-,N/A,,Clear,100,2013-04-25 08:35:00
2:55 AM,35.6,17.6,48,30.29,10.0,ESE,9.2,-,N/A,,Clear,110,2013-04-25 08:55:00
3:15 AM,35.6,17.6,48,30.30,10.0,East,6.9,-,N/A,,Clear,100,2013-04-25 09:15:00
3:35 AM,35.6,19.4,52,30.30,10.0,ESE,8.1,-,N/A,,Clear,110,2013-04-25 09:35:00
3:55 AM,35.6,19.4,52,30.30,10.0,ESE,6.9,-,N/A,,Clear,120,2013-04-25 09:55:00
4:15 AM,37.4,19.4,48,30.31,10.0,ESE,8.1,-,N/A,,Clear,120,2013-04-25 10:15:00
4:35 AM,37.4,19.4,48,30.30,10.0,ESE,9.2,-,N/A,,Partly Cloudy,120,2013-04-25 10:35:00
4:55 AM,39.2,19.4,45,30.28,10.0,SE,12.7,-,N/A,,Partly Cloudy,130,2013-04-25 10:55:00
5:15 AM,39.2,19.4,45,30.28,10.0,SE,10.4,-,N/A,,Clear,130,2013-04-25 11:15:00
5:35 AM,39.2,19.4,45,30.27,10.0,SE,9.2,-,N/A,,Clear,130,2013-04-25 11:35:00
5:55 AM,39.2,21.2,49,30.27,10.0,SE,9.2,-,N/A,,Clear,140,2013-04-25 11:55:00
6:15 AM,39.2,19.4,45,30.28,10.0,SSE,6.9,-,N/A,,Clear,150,2013-04-25 12:15:00
6:35 AM,37.4,19.4,48,30.26,10.0,SSE,5.8,-,N/A,,Clear,150,2013-04-25 12:35:00
6:55 AM,37.4,21.2,52,30.28,10.0,SSW,3.5,-,N/A,,Clear,210,2013-04-25 12:55:00
7:15 AM,39.2,21.2,49,30.28,10.0,SW,4.6,-,N/A,,Clear,220,2013-04-25 13:15:00
7:35 AM,42.8,21.2,42,30.29,10.0,SSW,5.8,-,N/A,,Clear,200,2013-04-25 13:35:00
7:55 AM,44.6,23.0,43,30.30,10.0,South,12.7,-,N/A,,Clear,180,2013-04-25 13:55:00
8:15 AM,46.4,24.8,43,30.31,10.0,South,13.8,-,N/A,,Clear,180,2013-04-25 14:15:00
8:35 AM,48.2,24.8,40,30.31,10.0,South,15.0,-,N/A,,Clear,180,2013-04-25 14:35:00
8:55 AM,50.0,26.6,40,30.31,10.0,South,15.0,-,N/A,,Clear,180,2013-04-25 14:55:00
9:15 AM,51.8,26.6,38,30.30,10.0,South,13.8,-,N/A,,Scattered Clouds,180,2013-04-25 15:15:00
9:35 AM,51.8,26.6,38,30.27,10.0,SSE,13.8,-,N/A,,Clear,150,2013-04-25 15:35:00
9:55 AM,55.4,28.4,36,30.28,10.0,SSE,17.3,-,N/A,,Clear,160,2013-04-25 15:55:00
10:15 AM,57.2,28.4,33,30.28,10.0,SSE,20.7,-,N/A,,Clear,160,2013-04-25 16:15:00
10:35 AM,55.4,28.4,36,30.29,10.0,South,17.3,-,N/A,,Partly Cloudy,180,2013-04-25 16:35:00
10:55 AM,59.0,30.2,34,30.28,10.0,South,15.0,23.0,N/A,,Partly Cloudy,170,2013-04-25 16:55:00
11:15 AM,57.2,30.2,36,30.28,10.0,South,13.8,19.6,N/A,,Scattered Clouds,170,2013-04-25 17:15:00
11:35 AM,60.8,32.0,34,30.26,10.0,South,16.1,25.3,N/A,,Mostly Cloudy,180,2013-04-25 17:35:00
11:55 AM,59.0,33.8,39,30.25,10.0,South,9.2,23.0,N/A,,Overcast,180,2013-04-25 17:55:00
12:15 PM,60.8,33.8,36,30.23,10.0,South,16.1,20.7,N/A,,Overcast,170,2013-04-25 18:15:00
12:35 PM,62.6,33.8,34,30.21,10.0,SSE,17.3,23.0,N/A,,Overcast,160,2013-04-25 18:35:00
12:55 PM,62.6,35.6,37,30.21,10.0,SSE,20.7,25.3,N/A,,Scattered Clouds,160,2013-04-25 18:55:00
1:15 PM,64.4,37.4,37,30.19,10.0,South,15.0,24.2,N/A,,Clear,170,2013-04-25 19:15:00
1:35 PM,64.4,37.4,37,30.17,10.0,South,20.7,27.6,N/A,,Clear,170,2013-04-25 19:35:00
1:55 PM,66.2,39.2,37,30.16,10.0,SSE,18.4,27.6,N/A,,Clear,160,2013-04-25 19:55:00
2:15 PM,68.0,41.0,37,30.15,10.0,South,24.2,28.8,N/A,,Partly Cloudy,170,2013-04-25 20:15:00
2:35 PM,66.2,39.2,37,30.14,10.0,SSE,19.6,27.6,N/A,,Partly Cloudy,150,2013-04-25 20:35:00
2:55 PM,68.0,39.2,35,30.13,10.0,South,18.4,28.8,N/A,,Clear,170,2013-04-25 20:55:00
3:15 PM,68.0,39.2,35,30.11,10.0,SSE,19.6,25.3,N/A,,Clear,160,2013-04-25 21:15:00
3:35 PM,69.8,39.2,33,30.10,10.0,South,20.7,-,N/A,,Clear,180,2013-04-25 21:35:00
3:55 PM,69.8,41.0,35,30.09,10.0,South,20.7,25.3,N/A,,Clear,170,2013-04-25 21:55:00
4:15 PM,69.8,41.0,35,30.09,10.0,South,16.1,23.0,N/A,,Clear,190,2013-04-25 22:15:00
4:35 PM,69.8,41.0,35,30.09,10.0,SSE,13.8,24.2,N/A,,Clear,150,2013-04-25 22:35:00
4:55 PM,69.8,41.0,35,30.08,10.0,South,18.4,25.3,N/A,,Clear,170,2013-04-25 22:55:00
5:15 PM,69.8,41.0,35,30.08,10.0,SSE,18.4,23.0,N/A,,Clear,160,2013-04-25 23:15:00
5:35 PM,69.8,41.0,35,30.08,10.0,South,21.9,26.5,N/A,,Clear,170,2013-04-25 23:35:00
5:55 PM,69.8,39.2,33,30.06,10.0,SSE,21.9,27.6,N/A,,Clear,160,2013-04-25 23:55:00
6:15 PM,69.8,41.0,35,30.04,10.0,SSE,24.2,28.8,N/A,,Clear,150,2013-04-26 00:15:00
6:35 PM,68.0,39.2,35,30.03,8.0,SSE,21.9,28.8,N/A,,Clear,150,2013-04-26 00:35:00
6:55 PM,66.2,39.2,37,30.03,10.0,SSE,20.7,26.5,N/A,,Clear,160,2013-04-26 00:55:00
7:15 PM,66.2,39.2,37,30.03,9.0,SSE,21.9,-,N/A,,Clear,150,2013-04-26 01:15:00
7:35 PM,64.4,39.2,40,30.03,8.0,SSE,19.6,-,N/A,,Clear,150,2013-04-26 01:35:00
7:55 PM,62.6,39.2,42,30.04,8.0,SSE,19.6,-,N/A,,Clear,160,2013-04-26 01:55:00
8:15 PM,60.8,39.2,45,30.05,8.0,SSE,17.3,-,N/A,,Clear,150,2013-04-26 02:15:00
8:35 PM,60.8,39.2,45,30.05,10.0,SSE,17.3,-,N/A,,Clear,150,2013-04-26 02:35:00
8:55 PM,59.0,39.2,48,30.05,10.0,SSE,20.7,26.5,N/A,,Clear,150,2013-04-26 02:55:00
9:15 PM,59.0,39.2,48,30.06,10.0,SSE,19.6,-,N/A,,Clear,150,2013-04-26 03:15:00
9:35 PM,57.2,39.2,51,30.06,10.0,SE,18.4,25.3,N/A,,Clear,140,2013-04-26 03:35:00
9:55 PM,57.2,39.2,51,30.06,10.0,SSE,17.3,23.0,N/A,,Clear,150,2013-04-26 03:55:00
10:15 PM,57.2,41.0,55,30.06,10.0,SSE,16.1,21.9,N/A,,Clear,150,2013-04-26 04:15:00
10:35 PM,55.4,41.0,58,30.06,10.0,SSE,15.0,-,N/A,,Clear,150,2013-04-26 04:35:00
10:55 PM,55.4,42.8,63,30.05,10.0,SSE,19.6,-,N/A,,Clear,150,2013-04-26 04:55:00
11:15 PM,55.4,42.8,63,30.04,10.0,SSE,18.4,24.2,N/A,,Clear,150,2013-04-26 05:15:00
11:35 PM,55.4,42.8,63,30.04,10.0,SE,15.0,-,N/A,,Clear,140,2013-04-26 05:35:00
11:55 PM,55.4,42.8,63,30.03,10.0,SE,16.1,-,N/A,,Clear,140,2013-04-26 05:55:00